Total_Precipitation_Accumulation
0.02 0.05 0.11 0.17 0.15 0.10 0.06 0.04 0.05 0.06 0.09 0.10 0.13 0.18 0.19 0.13 0.09 0.06 0.05 0.07 0.09 0.12 0.12 0.13 0.17 0.21 0.26 0.30 0.30 0.33 0.39 0.43 0.46 0.43 0.43 0.43 0.41 0.40 0.43 0.43 0.43 0.50 0.54 0.53
0.03 0.05 0.07 0.10 0.13 0.09 0.06 0.05 0.04 0.05 0.08 0.09 0.13 0.20 0.18 0.11 0.11 0.14 0.16 0.12 0.11 0.15 0.18 0.16 0.19 0.26 0.33 0.37 0.41 0.50 0.60 0.69 0.72 0.75 0.72 0.67 0.64 0.58 0.60 0.65 0.73 0.76 0.75 0.72
0.05 0.06 0.08 0.12 0.11 0.09 0.08 0.06 0.06 0.07 0.10 0.12 0.17 0.23 0.18 0.15 0.12 0.15 0.14 0.13 0.14 0.20 0.27 0.28 0.30 0.31 0.34 0.38 0.47 0.60 0.70 0.74 0.77 0.79 0.77 0.77 0.79 0.80 0.78 0.82 0.86 0.87 0.85 0.85
0.10 0.10 0.16 0.14 0.11 0.11 0.10 0.10 0.10 0.14 0.18 0.19 0.19 0.21 0.22 0.17 0.16 0.16 0.16 0.16 0.17 0.22 0.28 0.35 0.38 0.39 0.44 0.54 0.63 0.70 0.77 0.79 0.82 0.86 0.89 0.89 0.84 0.79 0.77 0.77 0.76 0.74 0.74 0.75
0.20 0.19 0.17 0.15 0.18 0.20 0.19 0.19 0.19 0.23 0.27 0.30 0.26 0.27 0.30 0.26 0.24 0.22 0.22 0.25 0.23 0.26 0.34 0.42 0.49 0.51 0.51 0.58 0.69 0.77 0.78 0.84 0.89 0.93 0.97 0.86 0.74 0.73 0.72 0.70 0.65 0.61 0.57 0.60
0.30 0.32 0.32 0.24 0.27 0.26 0.28 0.37 0.32 0.36 0.39 0.40 0.42 0.53 0.57 0.39 0.30 0.27 0.25 0.25 0.26 0.30 0.34 0.40 0.49 0.56 0.59 0.62 0.67 0.71 0.73 0.76 0.76 0.78 0.87 0.89 0.80 0.77 0.76 0.77 0.72 0.66 0.60 0.61
0.39 0.40 0.35 0.32 0.30 0.31 0.50 0.61 0.54 0.50 0.49 0.53 0.57 0.55 0.52 0.41 0.33 0.30 0.26 0.24 0.25 0.26 0.29 0.33 0.37 0.43 0.48 0.51 0.53 0.53 0.50 0.49 0.52 0.58 0.65 0.68 0.71 0.73 0.77 0.77 0.74 0.67 0.59 0.54
0.50 0.63 0.66 0.48 0.39 0.50 0.65 0.62 0.63 0.58 0.51 0.53 0.58 0.57 0.53 0.43 0.34 0.27 0.22 0.20 0.20 0.21 0.25 0.27 0.30 0.37 0.42 0.43 0.42 0.42 0.43 0.45 0.46 0.47 0.48 0.48 0.57 0.61 0.65 0.67 0.64 0.59 0.54 0.50
0.69 0.76 0.69 0.54 0.53 0.55 0.55 0.59 0.54 0.52 0.54 0.54 0.53 0.52 0.45 0.36 0.30 0.26 0.22 0.19 0.16 0.15 0.18 0.23 0.30 0.37 0.42 0.42 0.44 0.46 0.44 0.45 0.46 0.44 0.43 0.44 0.47 0.47 0.48 0.50 0.47 0.41 0.38 0.41
0.76 0.80 0.72 0.60 0.53 0.49 0.49 0.50 0.51 0.50 0.54 0.58 0.53 0.50 0.47 0.41 0.31 0.26 0.23 0.18 0.15 0.14 0.18 0.21 0.24 0.29 0.32 0.35 0.38 0.42 0.42 0.40 0.38 0.38 0.39 0.43 0.48 0.49 0.50 0.47 0.41 0.35 0.32 0.38
0.81 0.93 0.90 0.76 0.61 0.54 0.60 0.63 0.60 0.58 0.54 0.52 0.54 0.57 0.59 0.50 0.34 0.22 0.19 0.17 0.16 0.18 0.21 0.21 0.22 0.24 0.27 0.32 0.39 0.46 0.47 0.44 0.42 0.42 0.44 0.44 0.45 0.45 0.40 0.39 0.32 0.30 0.31 0.39
0.83 0.88 0.94 0.89 0.72 0.68 0.75 0.78 0.72 0.66 0.60 0.56 0.59 0.57 0.47 0.40 0.30 0.22 0.20 0.21 0.23 0.25 0.25 0.24 0.22 0.22 0.24 0.31 0.41 0.51 0.51 0.44 0.40 0.39 0.41 0.43 0.41 0.40 0.33 0.24 0.21 0.20 0.21 0.26
0.60 0.73 0.79 0.77 0.72 0.72 0.77 0.75 0.73 0.72 0.62 0.57 0.54 0.50 0.42 0.38 0.32 0.27 0.26 0.28 0.35 0.37 0.30 0.24 0.21 0.19 0.20 0.25 0.33 0.42 0.45 0.41 0.37 0.34 0.36 0.36 0.36 0.39 0.42 0.35 0.20 0.15 0.16 0.17
0.65 0.68 0.72 0.66 0.65 0.68 0.76 0.82 0.74 0.68 0.62 0.57 0.50 0.43 0.40 0.38 0.34 0.30 0.32 0.41 0.45 0.37 0.27 0.22 0.20 0.19 0.20 0.24 0.30 0.36 0.38 0.36 0.34 0.34 0.34 0.32 0.30 0.31 0.36 0.44 0.41 0.31 0.22 0.18
0.59 0.56 0.63 0.61 0.59 0.63 0.70 0.70 0.66 0.65 0.62 0.55 0.47 0.38 0.32 0.31 0.32 0.34 0.39 0.47 0.42 0.30 0.22 0.19 0.18 0.19 0.21 0.23 0.27 0.31 0.31 0.26 0.22 0.22 0.25 0.26 0.27 0.29 0.33 0.38 0.44 0.50 0.42 0.25
0.50 0.51 0.49 0.54 0.61 0.61 0.61 0.60 0.57 0.57 0.56 0.53 0.45 0.38 0.31 0.29 0.30 0.34 0.39 0.40 0.36 0.28 0.21 0.18 0.17 0.18 0.19 0.21 0.24 0.25 0.23 0.21 0.16 0.12 0.15 0.23 0.29 0.31 0.32 0.36 0.43 0.53 0.50 0.34
0.49 0.49 0.45 0.48 0.55 0.54 0.48 0.49 0.51 0.47 0.46 0.47 0.43 0.34 0.28 0.27 0.32 0.38 0.36 0.29 0.23 0.18 0.16 0.15 0.14 0.16 0.17 0.21 0.22 0.21 0.17 0.15 0.13 0.10 0.15 0.24 0.29 0.30 0.31 0.38 0.47 0.57 0.52 0.35
0.47 0.45 0.37 0.35 0.37 0.38 0.36 0.37 0.38 0.37 0.37 0.35 0.29 0.23 0.21 0.23 0.31 0.40 0.36 0.28 0.22 0.17 0.13 0.11 0.12 0.14 0.18 0.17 0.17 0.18 0.17 0.16 0.15 0.14 0.21 0.26 0.25 0.32 0.42 0.50 0.56 0.61 0.56 0.42
0.40 0.35 0.29 0.25 0.23 0.24 0.22 0.23 0.25 0.25 0.23 0.21 0.20 0.18 0.16 0.17 0.22 0.29 0.25 0.25 0.24 0.19 0.13 0.08 0.10 0.12 0.16 0.12 0.12 0.17 0.22 0.21 0.19 0.21 0.28 0.27 0.29 0.38 0.50 0.56 0.58 0.61 0.60 0.59
0.27 0.21 0.18 0.15 0.14 0.15 0.14 0.14 0.14 0.13 0.12 0.11 0.10 0.09 0.09 0.10 0.13 0.20 0.20 0.21 0.22 0.18 0.13 0.08 0.07 0.10 0.12 0.10 0.11 0.14 0.18 0.21 0.21 0.20 0.22 0.27 0.33 0.37 0.42 0.47 0.49 0.51 0.54 0.56
0.16 0.13 0.11 0.10 0.09 0.08 0.06 0.05 0.05 0.05 0.05 0.04 0.04 0.05 0.06 0.07 0.08 0.16 0.26 0.26 0.21 0.15 0.12 0.11 0.08 0.08 0.09 0.10 0.12 0.15 0.19 0.22 0.23 0.23 0.22 0.25 0.30 0.35 0.41 0.46 0.50 0.50 0.51 0.54
0.11 0.08 0.07 0.06 0.05 0.04 0.03 0.02 0.02 0.02 0.03 0.03 0.03 0.03 0.04 0.07 0.09 0.14 0.25 0.29 0.24 0.22 0.15 0.12 0.10 0.08 0.09 0.08 0.12 0.18 0.20 0.25 0.28 0.32 0.31 0.30 0.33 0.40 0.45 0.46 0.48 0.48 0.51 0.54
0.07 0.05 0.06 0.06 0.04 0.04 0.03 0.02 0.01 0.02 0.03 0.04 0.04 0.05 0.06 0.08 0.11 0.17 0.20 0.21 0.23 0.27 0.21 0.17 0.13 0.11 0.10 0.10 0.14 0.21 0.22 0.23 0.27 0.31 0.33 0.31 0.31 0.35 0.39 0.39 0.46 0.48 0.50 0.54
0.10 0.06 0.05 0.04 0.03 0.04 0.04 0.02 0.03 0.03 0.04 0.05 0.05 0.05 0.07 0.10 0.14 0.16 0.18 0.20 0.22 0.24 0.22 0.23 0.19 0.16 0.14 0.15 0.21 0.25 0.25 0.25 0.26 0.26 0.25 0.25 0.26 0.29 0.38 0.41 0.41 0.41 0.42 0.46
0.11 0.09 0.06 0.05 0.04 0.04 0.04 0.05 0.06 0.06 0.06 0.07 0.07 0.07 0.10 0.15 0.23 0.26 0.26 0.24 0.25 0.23 0.23 0.25 0.22 0.22 0.22 0.24 0.25 0.25 0.26 0.29 0.32 0.30 0.28 0.29 0.33 0.37 0.40 0.38 0.34 0.32 0.33 0.38
0.10 0.08 0.07 0.06 0.06 0.06 0.07 0.08 0.11 0.13 0.14 0.15 0.15 0.15 0.16 0.19 0.25 0.32 0.35 0.33 0.31 0.27 0.27 0.26 0.23 0.22 0.22 0.25 0.28 0.30 0.30 0.33 0.36 0.37 0.37 0.38 0.44 0.46 0.37 0.28 0.25 0.26 0.29 0.32
0.09 0.08 0.09 0.09 0.08 0.09 0.11 0.13 0.17 0.20 0.21 0.24 0.25 0.26 0.29 0.33 0.38 0.38 0.37 0.34 0.30 0.30 0.30 0.26 0.22 0.20 0.18 0.19 0.21 0.22 0.24 0.29 0.35 0.42 0.45 0.44 0.43 0.41 0.33 0.26 0.24 0.25 0.30 0.33